RH
25 21 21 26 24 21 18 18 17 20 29 21 28 23 28 33 30 33 32 33 33 34 53 74 48 29 32 34 39 86 89 42 49 53 53 53 54 62 64 66 69 75 74 76
19 24 28 23 28 27 25 22 21 26 25 21 29 26 30 34 38 36 36 39 45 47 56 48 31 32 36 36 39 41 45 52 54 56 56 55 62 65 67 72 72 79 82 86
23 31 19 31 32 31 30 27 34 33 32 30 31 28 30 36 38 39 43 43 46 53 59 40 36 35 37 42 51 56 58 59 57 57 58 62 64 68 73 79 80 85 90 71
31 19 33 35 38 33 31 39 39 36 32 25 29 22 32 32 38 44 49 51 51 55 58 41 42 48 54 55 58 59 59 62 62 62 64 66 74 77 79 86 83 85 92 50
37 40 42 40 43 29 43 27 41 40 32 29 26 21 36 32 36 43 52 58 59 44 45 47 55 59 60 58 60 66 66 63 62 64 65 75 71 75 88 98 87 52 54 53
40 32 45 48 40 29 38 46 44 44 35 32 32 28 31 34 42 48 58 67 71 66 50 53 58 60 59 59 63 65 64 64 66 79 90 92 93 77 61 52 48 49 51 55
40 46 50 32 45 50 41 38 37 42 39 38 39 28 42 47 48 52 63 69 77 51 56 61 61 74 66 69 74 75 74 74 89 94 79 62 53 50 54 55 56 60 64 69
34 44 50 37 42 50 44 45 48 42 38 31 36 25 40 51 59 60 65 70 74 75 70 76 76 72 89 74 73 75 79 76 66 54 52 56 61 66 64 63 75 79 69 62
41 44 46 30 47 46 47 47 45 54 55 56 28 32 47 56 59 60 64 69 74 78 81 86 90 94 85 70 74 73 66 58 62 62 60 57 55 61 70 74 74 59 47 31
38 47 41 47 35 49 53 48 51 46 60 38 21 22 33 55 51 61 56 60 66 71 74 84 87 94 94 94 75 70 65 72 79 90 85 69 84 81 73 56 43 33 22 13
35 44 46 44 50 46 51 52 55 42 48 44 39 30 45 44 53 56 62 63 69 72 79 84 92 90 95 100 100 100 99 84 84 100 97 78 70 60 45 32 16 10 12 26
16 50 43 36 32 26 58 52 50 50 42 50 59 50 52 52 54 60 62 66 76 84 86 93 96 98 94 100 99 90 78 82 70 69 72 57 43 26 12 9 8 14 35 56
21 58 40 35 58 64 54 56 55 62 66 56 61 51 54 58 73 58 61 72 82 98 88 93 98 99 98 97 83 93 96 72 59 44 33 26 14 8 6 5 7 23 46 63
13 56 47 38 35 39 41 43 43 50 61 59 54 48 46 52 60 64 70 78 86 95 98 99 94 84 80 80 98 97 84 51 35 24 20 14 10 7 5 8 40 73 76 75
24 56 54 46 44 44 46 48 47 44 45 51 57 54 54 62 72 79 86 91 96 100 98 77 76 77 77 79 87 92 98 44 50 20 18 15 11 9 20 47 64 81 83 69
28 68 32 33 52 50 54 50 47 47 53 53 53 55 61 74 77 86 90 97 100 82 78 69 82 87 83 100 99 100 100 100 84 47 66 52 36 19 48 70 89 92 59 14
34 37 45 47 42 49 58 52 49 51 54 65 64 63 68 77 93 88 94 99 87 75 73 81 84 86 99 100 100 94 100 96 100 100 100 100 60 53 76 95 100 100 56 64
39 44 50 51 59 87 66 60 59 58 62 59 59 67 85 90 97 98 94 99 75 59 54 58 73 80 78 79 93 87 98 94 99 100 93 98 88 72 92 100 100 99 100 100
43 50 54 78 76 66 64 69 66 69 63 69 85 96 77 81 81 98 97 74 52 40 42 57 83 74 70 87 92 95 91 90 98 96 95 94 90 100 100 100 100 99 100 100
47 55 64 93 97 78 72 73 85 67 76 99 83 78 75 81 98 100 70 50 36 47 78 92 92 93 89 88 88 86 88 93 86 98 76 67 99 100 100 100 100 100 100 100
51 60 72 100 94 84 75 81 68 84 90 90 84 74 79 96 98 68 42 38 86 90 86 88 85 85 85 56 62 86 85 94 96 97 95 78 100 100 97 100 100 100 100 89
66 82 85 93 98 92 80 86 92 95 98 92 80 88 95 100 71 46 38 68 87 84 80 79 81 84 46 70 85 87 80 94 94 98 78 88 98 98 100 100 100 100 100 63
70 79 85 89 80 78 88 99 99 100 90 96 97 98 99 74 65 66 88 86 83 80 74 78 83 73 86 93 92 93 82 70 72 86 96 100 98 97 100 100 100 100 66 56
44 75 85 98 87 94 98 96 99 94 95 92 98 83 61 83 78 89 85 86 75 72 77 80 88 92 94 94 96 100 68 62 70 78 96 98 97 60 41 100 98 76 53 60
48 84 87 94 94 96 100 97 100 90 82 84 72 73 67 60 80 92 84 76 77 80 85 87 94 94 94 98 100 89 63 74 89 97 99 97 40 32 32 41 54 47 54 63
36 77 94 95 100 87 98 98 96 95 90 81 77 75 67 75 88 84 78 77 82 68 76 92 90 92 99 75 60 59 75 87 91 98 89 30 21 26 34 34 44 50 56 59
Wind_Speed
5 6 2 1 3 4 1 4 5 4 5 2 6 5 4 2 1 4 6 10 12 11 16 23 20 20 18 18 17 13 24 25 22 25 26 28 28 28 32 34 38 36 37 37
4 4 2 2 1 1 2 3 2 4 3 2 3 5 2 3 6 6 5 6 9 14 16 21 21 20 22 22 24 23 24 21 23 27 31 29 30 31 34 36 40 39 41 41
2 5 4 2 2 3 3 3 3 5 6 7 6 9 7 5 8 9 10 11 11 9 7 15 16 14 12 11 13 17 20 22 25 31 32 33 32 35 38 42 41 43 43 45
4 5 1 2 3 4 5 3 7 7 6 10 11 6 10 9 7 7 7 8 8 7 5 8 9 10 13 16 18 21 25 27 30 32 36 34 38 44 46 47 48 51 48 48
3 2 2 2 3 3 4 8 6 7 9 9 9 12 12 11 7 3 4 5 3 8 9 9 10 14 17 20 22 25 29 33 35 38 37 40 45 45 45 49 55 49 43 44
5 1 0 3 4 2 5 5 4 3 5 7 2 7 11 8 6 5 4 2 1 4 12 13 16 21 24 24 25 28 31 35 34 35 44 48 52 50 45 48 51 49 48 47
5 2 2 3 2 3 6 4 5 3 4 2 2 7 4 4 6 6 3 2 3 14 15 18 20 16 24 23 23 25 27 30 37 41 44 47 49 48 50 49 49 49 49 51
4 5 3 5 2 3 6 5 4 4 2 5 4 6 8 7 4 4 2 4 5 9 16 15 15 19 18 28 29 30 31 34 39 42 41 44 46 45 47 48 47 49 51 52
0 2 2 4 4 4 4 3 1 0 1 3 6 4 6 7 4 1 3 5 8 8 9 11 12 15 28 30 32 35 33 34 38 42 44 44 45 48 48 49 49 48 47 49
0 2 1 4 4 5 3 1 4 3 3 4 2 12 5 6 5 6 7 10 13 14 14 16 19 22 24 26 32 37 40 44 45 42 44 47 47 43 43 42 44 48 52 52
3 2 1 5 1 3 4 2 3 4 3 4 5 7 2 5 5 8 11 15 17 13 16 19 21 27 26 30 27 33 36 43 41 41 47 43 40 40 43 47 50 51 51 49
4 1 1 1 6 5 2 3 3 3 3 5 5 12 3 2 5 11 13 18 16 17 15 19 21 26 31 33 34 40 43 37 36 36 36 36 40 43 47 49 50 51 47 41
1 2 4 3 1 2 3 5 6 5 6 12 10 9 5 10 15 14 16 17 15 15 21 25 24 26 35 37 46 40 36 34 33 33 34 38 41 43 47 49 50 49 46 41
0 1 2 7 10 11 12 13 12 13 14 15 19 21 17 15 17 15 16 14 20 25 26 27 37 42 44 41 32 35 32 31 33 35 38 41 44 47 49 49 46 43 41 39
1 1 6 10 13 14 16 17 16 18 20 21 22 20 21 19 15 15 15 18 23 24 30 40 41 41 41 39 34 31 28 31 31 37 40 43 46 48 45 44 44 41 39 37
5 4 11 17 10 12 17 20 20 18 13 16 18 19 15 11 15 18 23 25 23 39 38 37 38 42 36 25 28 28 30 28 32 38 35 39 41 43 42 43 41 38 34 30
5 5 10 7 18 24 9 3 2 7 11 11 13 14 15 15 17 25 29 25 36 38 40 39 41 33 25 26 27 28 28 33 34 35 34 33 42 42 40 38 31 28 29 28
4 6 6 10 12 3 2 11 16 14 12 10 11 11 9 16 24 30 34 31 38 40 40 39 33 32 31 29 29 34 28 35 33 34 38 34 43 40 34 28 26 27 25 27
5 5 5 2 8 19 8 1 3 10 14 13 9 11 20 30 34 22 28 39 40 38 35 34 30 30 34 30 32 34 39 37 33 34 31 39 39 28 29 26 27 25 26 28
6 6 5 7 4 4 2 9 13 13 14 13 17 22 40 36 29 25 37 38 37 32 26 26 28 30 30 31 33 33 35 38 44 25 44 42 34 32 27 28 25 25 27 30
8 11 11 9 9 12 12 20 11 6 11 21 28 35 31 28 26 34 37 33 23 22 25 27 28 30 33 41 38 34 35 36 41 32 30 40 32 30 32 25 25 27 28 33
7 6 7 6 7 8 6 9 17 19 24 30 34 28 35 30 35 33 29 25 23 25 28 29 31 34 43 36 35 36 34 35 41 23 40 40 29 31 26 23 25 29 28 31
8 12 8 9 14 19 26 29 26 24 28 29 28 24 21 32 26 24 21 23 26 28 30 32 32 37 33 34 34 35 39 36 35 38 39 34 31 27 21 24 24 28 28 32
18 14 24 21 21 22 23 21 24 31 32 34 26 31 27 23 23 22 25 28 30 31 34 31 32 33 35 37 37 35 39 34 32 31 34 31 25 22 25 21 23 25 29 30
24 16 23 29 27 25 21 25 27 31 27 32 34 29 30 28 26 26 29 31 32 34 30 34 33 35 38 38 37 36 39 35 29 29 28 24 20 23 24 25 25 25 27 29
30 24 24 28 26 28 27 33 26 24 27 31 27 29 29 29 28 29 32 34 32 34 35 32 33 36 36 40 42 38 36 30 27 24 18 18 19 20 22 22 24 25 24 28
Wind_Direction
207 232 167 169 294 324 61 243 246 219 253 228 221 227 265 4 107 176 203 212 206 200 199 220 226 235 243 251 252 235 244 273 275 277 282 283 283 293 298 298 299 300 305 304
204 172 190 230 301 320 284 268 224 260 254 163 229 201 189 97 120 124 141 148 165 192 205 224 228 238 246 255 255 264 267 273 274 272 281 278 281 287 289 289 295 294 293 296
173 169 184 132 344 0 314 312 294 297 278 262 224 203 189 130 112 108 114 120 127 142 144 227 238 245 245 253 266 271 283 281 275 273 273 275 278 282 285 288 288 287 292 301
127 182 109 353 356 354 286 269 298 284 266 248 209 200 179 170 139 117 113 117 119 126 145 220 242 257 276 292 295 290 293 280 274 273 274 278 283 283 285 288 289 289 303 300
188 113 37 349 303 322 287 285 282 258 246 267 226 262 141 171 166 173 151 127 140 220 233 244 268 291 300 301 296 286 277 272 274 278 278 282 280 279 280 294 300 305 299 300
140 195 73 338 333 342 329 321 278 253 225 240 209 278 161 162 176 182 161 134 171 247 260 269 287 300 298 291 281 275 276 281 283 285 292 293 297 304 305 305 308 308 306 303
123 73 329 21 359 349 353 293 256 206 193 242 133 273 55 125 133 169 176 259 280 262 275 293 307 297 296 298 292 288 287 287 296 297 301 302 304 306 306 305 303 303 304 303
208 167 63 351 61 314 356 16 12 299 338 318 203 262 117 154 149 217 274 281 308 300 301 308 310 303 295 298 298 293 291 292 296 300 302 299 300 301 299 299 300 302 303 302
224 107 357 19 35 22 333 37 9 33 322 253 271 229 210 175 160 185 287 310 303 303 306 313 317 314 307 303 299 298 296 300 302 303 302 302 301 301 302 302 300 302 299 295
287 176 236 314 9 357 50 14 315 358 310 293 310 300 102 178 248 271 305 307 305 298 299 298 305 306 303 298 295 293 296 301 305 302 308 311 308 305 302 304 303 300 300 304
45 61 335 30 12 337 332 319 335 305 304 298 311 317 343 281 256 283 295 308 307 297 293 304 304 302 300 305 306 305 305 309 312 304 303 304 303 308 307 305 306 311 311 313
357 74 304 284 294 284 303 294 290 284 299 259 282 282 310 168 294 307 309 310 305 306 307 301 303 295 297 300 297 303 307 306 303 302 306 308 306 308 311 312 313 315 316 313
0 357 317 237 308 347 306 282 266 262 259 255 256 264 282 287 309 308 313 303 313 293 286 290 290 300 310 304 307 306 303 310 316 313 306 306 310 312 311 313 316 317 317 315
115 316 288 297 305 303 292 282 276 262 262 275 272 285 292 300 305 307 311 307 291 299 306 301 297 306 310 311 307 304 308 314 314 313 311 310 310 312 316 320 322 319 317 316
0 268 296 297 301 300 289 281 274 265 268 264 280 286 296 299 303 314 317 310 310 319 303 308 308 313 314 316 307 310 305 310 311 309 308 309 312 317 320 320 318 318 316 316
315 295 317 319 314 313 296 286 275 270 264 270 277 286 298 301 306 308 297 299 306 313 316 317 318 317 321 310 311 309 314 306 308 308 307 309 312 320 320 318 318 317 317 315
307 325 327 300 322 317 315 40 306 274 283 279 274 289 298 304 292 297 300 306 309 318 318 317 316 320 313 311 311 310 298 307 309 307 304 305 312 321 316 314 313 314 314 314
283 315 314 295 329 310 314 288 295 282 289 283 282 291 291 280 296 307 301 307 317 319 319 319 317 315 313 310 309 309 299 305 301 300 306 300 310 315 315 308 313 310 315 314
267 300 312 275 296 289 319 224 294 312 291 288 262 265 297 304 309 315 304 317 321 322 319 314 313 313 311 311 311 305 305 307 299 293 294 295 310 311 302 307 306 315 314 315
254 263 284 279 270 270 293 309 293 310 284 235 276 284 306 308 310 307 313 318 321 319 318 316 312 317 315 314 312 310 309 305 307 289 300 311 312 310 297 304 311 314 316 311
273 280 270 244 256 267 286 270 285 261 287 284 293 303 309 309 309 319 324 328 323 318 319 313 315 312 315 316 317 314 313 308 304 290 293 311 300 295 301 309 316 313 310 310
284 274 271 228 254 278 265 280 271 287 288 295 308 311 309 307 320 326 326 323 321 318 315 314 312 312 316 317 316 313 314 304 297 294 297 309 285 297 306 311 315 303 310 320
268 255 255 248 271 286 299 297 295 285 299 301 308 310 303 317 321 324 324 318 317 317 315 314 312 314 317 317 318 319 307 313 297 291 300 298 295 305 312 302 307 313 323 325
285 269 267 281 288 294 280 283 279 291 307 313 304 317 321 321 320 319 316 317 317 317 317 314 315 317 318 319 317 316 319 320 313 307 305 300 299 309 312 310 312 319 324 327
288 282 280 278 284 290 282 274 273 299 305 312 316 321 321 320 316 315 316 317 315 317 314 316 321 318 316 316 315 317 320 317 314 313 306 302 312 317 317 319 318 323 325 333
289 284 278 284 287 288 272 293 294 294 303 312 314 315 313 312 312 313 313 315 317 315 320 317 314 313 314 318 321 320 319 315 315 314 309 314 319 319 322 322 322 326 329 335